This is the latest recevied weather packets stored in our database for station/object K6GMW. If no packets are shown the sender has not sent any weather packets the latest 10 day(s).
| Time | Temp. | Humidity | Pressure | Rain* | Wind** | Luminosity | Snow |
|---|---|---|---|---|---|---|---|
| 1777583211 | 16.67° C | 87% | 1015.1 hPa | 0 mm | - | 136 W/m² | - |
| 1777582906 | 16.67° C | 89% | 1015 hPa | 0 mm | - | 160 W/m² | - |
| 1777582604 | 16.67° C | 87% | 1015.1 hPa | 0 mm | - | 134 W/m² | - |
| 1777582299 | 16.67° C | 88% | 1015.3 hPa | 0 mm | - | 150 W/m² | - |
| 1777581997 | 16.67° C | 87% | 1014.9 hPa | 0 mm | - | 220 W/m² | - |
| 1777581692 | 16.67° C | 90% | 1014.7 hPa | 0 mm | - | 293 W/m² | - |
| 1777581387 | 16.67° C | 89% | 1014.4 hPa | 0.51 mm | - | 208 W/m² | - |
| 1777581087 | 16.67° C | 88% | 1014.7 hPa | 1.27 mm | - | 169 W/m² | - |
| 1777580786 | 16.67° C | 88% | 1014.7 hPa | 0.51 mm | - | 217 W/m² | - |
| 1777580482 | 16.67° C | 87% | 1014.8 hPa | 0.51 mm | - | 237 W/m² | - |
| 1777580177 | 16.67° C | 86% | 1015 hPa | 0 mm | - | 189 W/m² | - |
| 1777579875 | 16.67° C | 85% | 1015.1 hPa | 0 mm | - | 126 W/m² | - |
| 1777579574 | 16.67° C | 84% | 1015.4 hPa | 0 mm | - | 99 W/m² | - |
| 1777579274 | 16.67° C | 83% | 1015.3 hPa | 0 mm | - | 93 W/m² | - |
| 1777578970 | 16.67° C | 83% | 1015.4 hPa | 0 mm | - | 112 W/m² | - |
| 1777578665 | 16.67° C | 83% | 1015 hPa | 0 mm | - | 118 W/m² | - |
| 1777578364 | 17.22° C | 82% | 1014.9 hPa | 0 mm | - | 149 W/m² | - |
| 1777578060 | 17.22° C | 83% | 1014.8 hPa | 0 mm | - | 231 W/m² | - |
| 1777577755 | 17.22° C | 83% | 1014.9 hPa | 0 mm | - | 236 W/m² | - |
| 1777577452 | 17.22° C | 85% | 1014.8 hPa | 0 mm | - | 213 W/m² | - |
| 1777577150 | 17.22° C | 83% | 1014.9 hPa | 0 mm | - | 247 W/m² | - |
| 1777576846 | 16.67° C | 83% | 1014.9 hPa | 0.51 mm | - | 237 W/m² | - |
| 1777576544 | 16.67° C | 83% | 1015.5 hPa | 0.51 mm | - | 222 W/m² | - |
| 1777576241 | 16.67° C | 83% | 1015.5 hPa | 0 mm | - | 197 W/m² | - |
| 1777575937 | 16.67° C | 83% | 1015.7 hPa | 0 mm | - | 166 W/m² | - |
* Rain latest hour (hover to see other rain measurements)
** Current wind speed in m/s (hover to see current wind gust speed)